www.pogodaiklimat.ru

Погода и климат >> Архив погоды >> Австралия >> Западная Австралия >> Марбл-бар


ПОГОДА в Марбл-баре

  • Прогноз погоды в Марбл-баре
  • Монитор погоды в Марбл-баре

АРХИВ ПОГОДЫ в Марбл-баре

Время (UTC), дата Ветер
(напр.,м/с)
 
Видим.   Явления Облачность Т
(С)
Тd
(С)
f
(%)
Тe
(С)
Тes
(С)
Комфортность P
(гПа)
Po
(гПа)
Тmin
(С)
Tmax
(С)
R
(мм)
R24
(мм)
S
(см)
07 19.03 З 1 н/о н/о +37.6 +16.0 28 +39 +39 очень
душно
1004.2 984.0
09 19.03 С 4 н/о н/о +34.6 +17.3 36 +38 +38 очень
душно
1004.5 984.3
10 19.03 СЗ 3 н/о н/о +33.4 +18.3 41 +38 +38 очень
душно
1005.4 985.2
12 19.03 З 2 н/о н/о +31.3 +19.3 49 +37 +37 очень
душно
1007.1 986.8
13 19.03 ЮЗ 2 н/о н/о +31.0 +20.0 52 +37 +37 очень
душно
1007.4 987.1 +39.6
15 19.03 Ю 4 н/о н/о +31.0 +20.3 53 +38 +38 очень
душно
1007.4 987.1
16 19.03 Ю 2 н/о н/о +29.9 +20.2 56 +36 +36 очень
душно
1006.9 986.6
18 19.03 штиль 0 н/о н/о +28.7 +20.7 62 +36 +36 очень
душно
1005.7 985.5
19 19.03 ЮЗ 2 н/о н/о +28.4 +20.7 63 +35 +35 очень
душно
1005.6 985.4
21 19.03 штиль 0 н/о н/о +27.3 +20.6 67 +34 +34 очень
душно
1006.0 985.8
22 19.03 штиль 0 н/о н/о +26.1 +21.5 76 +33 +33 очень
душно
1006.3 986.1
00 20.03 СВ 1 н/о н/о +31.7 +20.3 51 +38 +38 очень
душно
1007.8 987.5
01 20.03 ЮВ 2 н/о н/о +34.1 +19.4 42 +39 +39 очень
душно
1008.0 987.7 +25.6
03 20.03 В 2 н/о н/о +38.0 +16.9 29 +41 +41 опасность
перегрева
1006.9 986.6
04 20.03 В 1 н/о н/о +39.0 +15.4 25 +40 +40 очень
душно
1006.1 985.9
06 20.03 В 3 н/о н/о +40.3 +13.0 20 +40 +40 очень
жарко
1004.5 984.3
07 20.03 ЮВ 4 н/о н/о +40.7 +14.1 21 +41 +41 опасность
перегрева
1003.9 983.7
09 20.03 С 9 н/о н/о +35.2 +21.1 44 +42 +42 опасность
перегрева
1004.1 983.9
10 20.03 С 3 н/о н/о +34.4 +17.6 37 +38 +38 очень
душно
1005.0 984.8
12 20.03 С 4 н/о н/о +31.9 +20.5 51 +39 +39 очень
душно
1007.1 986.8
13 20.03 С 3 н/о н/о +30.7 +22.0 60 +39 +39 очень
душно
1007.5 987.2 +41.1
15 20.03 С 1 н/о н/о +29.3 +22.0 65 +38 +38 очень
душно
1007.4 987.1
16 20.03 штиль 0 н/о н/о +28.8 +22.5 69 +38 +38 очень
душно
1007.5 987.2
18 20.03 штиль 0 н/о н/о +27.8 +23.6 78 +38 +38 очень
душно
1006.5 986.3
19 20.03 штиль 0 н/о н/о +27.7 +23.9 80 +38 +38 очень
душно
1006.0 985.8
21 20.03 штиль 0 н/о н/о +27.3 +24.4 84 +38 +38 очень
душно
1006.4 986.2
22 20.03 В 1 н/о н/о +26.9 +24.5 87 +38 +38 очень
душно
1006.5 986.3
00 21.03 В 2 н/о н/о +29.9 +24.5 73 +42 +42 опасность
перегрева
1007.7 987.4
01 21.03 ЮВ 3 н/о н/о +31.2 +23.6 64 +42 +42 опасность
перегрева
1008.2 987.9 +26.9
03 21.03 В 3 н/о н/о +34.5 +22.2 49 +43 +43 опасность
перегрева
1007.3 987.0
04 21.03 В 3 н/о н/о +35.0 +20.9 44 +42 +42 опасность
перегрева
1006.9 986.6
06 21.03 СВ 4 н/о н/о +36.4 +18.5 35 +41 +41 опасность
перегрева
1004.8 984.6
07 21.03 СВ 4 н/о н/о +36.4 +18.5 35 +41 +41 опасность
перегрева
1004.1 983.9
09 21.03 В 3 н/о н/о +33.0 +18.4 42 +38 +38 очень
душно
1004.5 984.3
10 21.03 В 3 н/о н/о +33.1 +20.3 47 +40 +40 очень
душно
1004.9 984.7
12 21.03 С 4 н/о н/о +31.2 +22.5 60 +41 +41 опасность
перегрева
1006.3 986.1
13 21.03 С 5 н/о н/о +30.6 +22.2 61 +40 +40 очень
душно
1006.9 986.6 +37.8
16 21.03 В 2 н/о н/о +29.5 +21.7 63 +38 +38 очень
душно
1006.3 986.1
18 21.03 СВ 2 н/о н/о +29.3 +21.3 62 +37 +37 очень
душно
1005.9 985.7
22 21.03 В 2 н/о н/о +28.2 +23.6 76 +38 +38 очень
душно
1005.8 985.6
01 22.03 В 3 н/о н/о +30.3 +23.7 68 +41 +41 опасность
перегрева
1006.5 986.3 +28.1
03 22.03 СВ 4 н/о н/о +35.2 +21.5 45 +43 +43 опасность
перегрева
1005.8 985.6
04 22.03 СВ 6 н/о н/о +34.7 +20.3 43 +41 +41 опасность
перегрева
1005.1 984.9
06 22.03 С 5 н/о н/о +35.6 +19.9 40 +41 +41 опасность
перегрева
1003.5 983.3
07 22.03 С 6 н/о н/о +34.8 +20.4 43 +41 +41 опасность
перегрева
1003.2 983.0
09 22.03 С 5 н/о н/о +34.3 +20.3 44 +41 +41 опасность
перегрева
1003.4 983.2
10 22.03 С 5 н/о н/о +32.8 +19.7 46 +39 +39 очень
душно
1004.3 984.1
12 22.03 С 4 н/о н/о +30.9 +21.7 58 +39 +39 очень
душно
1006.0 985.8
13 22.03 С 5 н/о н/о +30.5 +21.9 60 +39 +39 очень
душно
1006.4 986.2 +37.1
15 22.03 СВ 3 н/о н/о +29.4 +22.1 65 +38 +38 очень
душно
1005.7 985.5
16 22.03 СВ 3 н/о н/о +29.1 +21.8 65 +37 +37 очень
душно
1005.3 985.1
18 22.03 В 3 н/о н/о +27.9 +22.2 71 +36 +36 очень
душно
1004.6 984.4
19 22.03 В 2 н/о н/о +27.1 +22.5 76 +36 +36 очень
душно
1004.3 984.1
21 22.03 ЮВ 4 н/о н/о +26.9 +22.9 79 +36 +36 очень
душно
1003.9 983.7
22 22.03 ЮВ 4 н/о н/о +26.8 +23.1 80 +36 +36 очень
душно
1004.3 984.1
00 23.03 В 5 н/о н/о +29.1 +22.8 69 +39 +39 очень
душно
1005.2 985.0
01 23.03 В 5 н/о н/о +30.8 +21.9 59 +39 +39 очень
душно
1005.3 985.1 +26.9
03 23.03 СВ 6 н/о н/о +32.8 +20.3 48 +39 +39 очень
душно
1005.2 985.0
04 23.03 СВ 7 н/о н/о +29.4 +21.6 63 +37 +37 очень
душно
1004.7 984.5
06 23.03 В 5 н/о н/о +29.5 +21.7 63 +38 +38 очень
душно
1003.2 983.0
07 23.03 СВ 5 н/о {туман} н/о +30.0 +21.7 61 +38 +38 очень
душно
1003.0 982.8
09 23.03 В 4 н/о н/о +29.1 +21.8 65 +37 +37 очень
душно
1003.0 982.8
10 23.03 ЮВ 6 н/о в посл. час дождь {туман} н/о +26.6 +22.7 79 +35 +35 очень
душно
1003.6 983.4
12 23.03 В 4 н/о н/о +27.1 +21.4 71 +34 +34 очень
душно
1004.2 984.0
13 23.03 ЮВ 6 н/о {туман} н/о +27.2 +21.7 72 +35 +35 очень
душно
1003.6 983.4 +33.2
15 23.03 В 5 н/о н/о +27.6 +21.6 70 +35 +35 очень
душно
1003.4 983.2
16 23.03 В 5 н/о н/о +27.5 +21.5 70 +35 +35 очень
душно
1003.5 983.3
18 23.03 В 7 н/о н/о +26.3 +23.2 83 +35 +35 очень
душно
1002.0 981.8
19 23.03 В 6 н/о н/о +26.6 +23.5 83 +36 +36 очень
душно
1001.8 981.6
21 23.03 В 7 н/о н/о +26.4 +23.7 85 +36 +36 очень
душно
1002.6 982.4
22 23.03 В 7 н/о в посл. час дождь {туман} н/о +26.2 +23.9 87 +36 +36 очень
душно
1002.0 981.8
00 24.03 В 9 н/о н/о +25.1 +24.8 98 +35 +35 очень
душно
1003.3 983.1
01 24.03 В 6 н/о в посл. час дождь {туман} н/о +25.4 +25.2 99 +37 +37 очень
душно
1003.4 983.2 +25.1
03 24.03 В 6 н/о н/о +25.6 +25.1 97 +37 +37 очень
душно
1003.8 983.6
04 24.03 В 7 н/о туман местами н/о +24.9 +24.9 100 +35 +35 очень
душно
1003.6 983.4
06 24.03 В 8 н/о н/о +23.9 +23.0 95 +32 +32 очень
душно
1001.9 981.7
07 24.03 В 5 н/о туман местами н/о +22.8 +22.8 100 +31 +31 очень
душно
1001.6 981.5
09 24.03 В 9 н/о н/о +22.8 +22.8 100 +31 +31 очень
душно
1002.6 982.4
10 24.03 В 7 н/о в посл. час дождь {туман} н/о +22.9 +22.9 100 +32 +32 очень
душно
1002.6 982.4
12 24.03 В 8 н/о н/о +23.4 +23.4 100 +33 +33 очень
душно
1003.5 983.3
13 24.03 В 6 н/о туман местами н/о +23.6 +23.6 100 +32 +32 очень
душно
1004.0 983.8 +28.0
15 24.03 СВ 7 н/о н/о +23.9 +23.9 100 +33 +33 очень
душно
1004.7 984.5
16 24.03 В 6 н/о в посл. час осадки н/о +23.8 +23.8 100 +32 +32 очень
душно
1004.5 984.3
18 24.03 В 4 н/о н/о +23.2 +23.2 100 +33 +33 очень
душно
1003.8 983.6
19 24.03 В 4 н/о туман н/о +23.6 +23.6 100 +32 +32 очень
душно
1004.4 984.2
21 24.03 В 6 н/о н/о +23.4 +23.4 100 +33 +33 очень
душно
1004.1 983.9
22 24.03 ЮВ 4 н/о туман н/о +23.7 +23.7 100 +32 +32 очень
душно
1005.1 984.9
00 25.03 СВ 5 н/о н/о +22.9 +22.9 100 +32 +32 очень
душно
1007.6 987.3
01 25.03 В 4 н/о туман н/о +23.1 +23.1 100 +32 +32 очень
душно
1008.1 987.8 +22.6
03 25.03 В 5 н/о н/о +23.9 +23.9 100 +33 +33 очень
душно
1008.2 987.9
04 25.03 В 4 н/о туман местами н/о +24.3 +24.3 100 +34 +34 очень
душно
1007.5 987.2
06 25.03 В 5 н/о н/о +24.2 +24.2 100 +33 +33 очень
душно
1007.0 986.7
07 25.03 В 5 н/о в посл. час дождь {туман} н/о +24.3 +24.3 100 +34 +34 очень
душно
1007.1 986.8
09 25.03 ЮВ 4 н/о н/о +23.9 +23.9 100 +33 +33 очень
душно
1008.1 987.8
10 25.03 В 5 н/о туман местами н/о +24.0 +24.0 100 +33 +33 очень
душно
1008.3 988.0
12 25.03 В 3 н/о н/о +24.3 +24.3 100 +34 +34 очень
душно
1009.7 989.4
13 25.03 В 5 н/о в посл. час дождь {туман} н/о +24.4 +24.2 99 +34 +34 очень
душно
1010.3 990.0 +24.6
15 25.03 В 3 н/о н/о +24.3 +24.1 99 +33 +33 очень
душно
1010.4 990.1
16 25.03 В 3 н/о н/о +24.1 +23.9 99 +33 +33 очень
душно
1009.8 989.5
18 25.03 штиль 0 н/о н/о +23.7 +23.7 100 +32 +32 очень
душно
1009.7 989.4
19 25.03 З 2 н/о н/о +23.9 +23.9 100 +33 +33 очень
душно
1010.3 990.0
21 25.03 В 2 н/о н/о +24.3 +23.8 97 +33 +33 очень
душно
1010.7 990.4
22 25.03 В 3 н/о н/о +24.3 +23.6 96 +33 +33 очень
душно
1011.1 990.8
00 26.03 ЮВ 1 н/о н/о +26.3 +22.8 81 +35 +35 очень
душно
1012.7 992.3
01 26.03 СВ 2 н/о н/о +28.0 +23.2 75 +38 +38 очень
душно
1012.7 992.3 +22.9
03 26.03 СВ 2 н/о н/о +31.2 +23.0 62 +41 +41 опасность
перегрева
1011.6 991.3
04 26.03 В 3 н/о н/о +31.4 +22.1 58 +40 +40 очень
душно
1011.0 990.7
06 26.03 С 3 н/о н/о +33.3 +22.4 53 +43 +43 опасность
перегрева
1009.7 989.4
07 26.03 С 2 н/о н/о +32.8 +22.6 55 +42 +42 опасность
перегрева
1009.4 989.1

 

Местоположение метеостанции Марбл-бар (Западная Австралия, Австралия): широта -21.18 долгота 119.75 высота над уровнем моря 183 м.

В архиве по умолчанию представлена погода в Марбл-баре за последнюю неделю. Архивные данные за месяц целиком и за предыдущие месяцы, начиная с января 2011 года, Вы можете получить, выбрав интересующий диапазон дат из раскрывающегося списка и нажав кнопку "Ввод!".


*Определитесь, кто Вы:
робот инопланетянин человек

Внимание! Время в таблицах - всемирное. Для получения местного времени необходимо прибавить поправку, которая равна 8 ч.

Смотрите также архив погоды в соседних городах и на ближайших метеорологических станциях:

Погода в Порт-Хедленде (Западная Австралия, Австралия) (148 км)
Погода в Мандоре (Западная Австралия, Австралия) (198 км)
Погода в Ньюмане (Западная Австралия, Австралия) (248 км)
Погода в Телфере (Западная Австралия, Австралия) (261 км)
Погода в Роборне (Западная Австралия, Австралия) (274 км)
Погода в Параберду (Западная Австралия, Австралия) (302 км)
Погода в Каррате (Западная Австралия, Австралия) (314 км)
Погода в Марди (Западная Австралия, Австралия) (392 км)
Погода в Роули Шоалс (Западная Австралия, Австралия) (415 км)
Погода на Острове Варанас (Западная Австралия, Австралия) (438 км)

Пояснения к столбцам:

Ветер - указаны скорость ветра в м/с - средняя за 10 мин, порывы в срок и между сроками (в фигурных скобках) и направление, откуда дует ветер: С - северный, СВ - северо-восточный, В - восточный, ЮВ - юго-восточный, Ю - южный, ЮЗ - юго-западный, З - западный, СЗ - северо-западный.
Видимость - горизонтальная дальность видимости в метрах или километрах. При видимости от 1 до 10 км при отсутствии осадков обычно наблюдается дымка, при ухудшении видимости до 1 км и менее - туман. В сухую погоду видимость может ухудшаться дымом, пылью или мглою.
Явления - указаны атмосферные явления, наблюдавшиеся в срок или в последний час перед сроком; фигурными скобками обозначены явления, наблюдавшиеся между сроками (за 1-3 часа до срока); квадратными скобками обозначены град или гололедные отложения с указанием их диаметра в мм.
Облачность - указаны через наклонную черту общая и нижняя облачность в баллах и высота нижней границы облаков в метрах; квадратными скобками обозначены формы облаков: Ci - перистые, Cs - перисто-слоистые, Cc - перисто-кучевые, Ac - высококучевые, As - высокослоистые, Sc - слоисто-кучевые, Ns - слоисто-дождевые, Cu - кучевые, Cb - кучево-дождевые. Подробнее классификацию облаков см. в Атласе облаков (PDF).
T - Температура воздуха - температура, измеренная на высоте 2 м над землей.
Td - Температура точки росы - температура, при понижении до которой содержащийся в воздухе водяной пар достигнет насыщения.
f - Относительная влажность воздуха - влажноcть воздуха, измеренная на высоте 2 м над землей.
Te - Эффективная температура - температура, которую ощущает одетый по сезону человек в тени. Характеристика душности погоды. При расчете учитывается влияние влажности воздуха и скорости ветра на теплоощущения человека.
Tes - Эффективная температура на солнце - температура, которую ощущает человек, с поправкой на солнечный нагрев. Характеристика знойности погоды. Зависит от высоты солнца над горизонтом, облачности и скорости ветра. Ночью, в пасмурную погоду, а также при ветре 12 м/с и более поправка равна нулю.
P - Атмосферное давление - приведенное к уровню моря атмосферное давление.
Po - Атмосферное давление - измеренное на уровне метеостанции атмосферное давление.
Tmin - Минимальная температура - минимум температуры воздуха на высоте 2 м над землей.
Tmax - Максимальная температура - максимум температуры воздуха на высоте 2 м над землей.
R - Количество осадков - Количество выпавших осадков за период времени, мм. При наведении курсора мыши на число - период времени, за который выпало указанное количество осадков.
R24 - Количество осадков - Количество выпавших осадков за 24 часа, мм.
S - Снежный покров - Высота снежного покрова, см. При наведении курсора мыши на число - состояние снежного покрова и степень покрытия местности в баллах.